sat.trackr.live / text

‹ back to catalog

YAM-3

NORAD 48915 · 2021-059AN

PAYLOAD ACTIVE UNKNOWN

§ Identity

Operator
Country
US
Launch date
2021-06-30
Launch site
AFETR
Launch vehicle
Mass (kg)
RCS (m²)

External: N2YO · Heavens-Above · Gunter

§ Orbital elements

Epoch: 2026-05-25T01:24:59.118912Z

Period
93.02 min
Inclination
97.7000°
Eccentricity
0.0006543
Mean motion
15.47971792 rev/d
Perigee alt
418.2 km
Apogee alt
427.1 km
Semi-major
6,800.8 km
B*
2.0276e-4
RAAN
330.5135°
Arg perigee
83.5182°
Mean anomaly
276.6813°
Rev number
27,341

§ Raw data

YAM-31 48915U 21059AN  26145.05901758  .00010495  00000+0  20276-3 0  99952 48915  97.7000 330.5135 0006543  83.5182 276.6813 15.47971792273419

JSON: /api/v1/satellites/48915 · /tle

For live sub-satellite position, see the globe view (requires WebGL).

§ Visibility from observer

Set your observer location to see the next 7 days of passes ≥ 10°. The values pass through the URL so the page stays shareable.

No JS? Fill the form by hand. The geolocation button needs JavaScript.

§ Radio — SatNOGS DB

ModeDescriptionDownlinkUplink
FM Service Link 400.100 MHz
BPSK UHF Unknown 401.500 MHz
FM UTX1 400.875 MHz
FM UTX2 401.017 MHz
FM UTX3 401.085 MHz

5 transmitters · refreshed weekly from db.satnogs.org